GW1761 Weather Reports


time (UTC)temp
C
wind
direction
speed
KPH
gust
KPH
rain 1hr
cm
rain 24hr
cm
rain mn
cm
humidity
%
barometer
mb
20260510230004 20 360 3.2 14.5 0.00 0.28 0.13 49 1019.5
20260510224601 18 360 1.6 4.8 0.00 0.28 0.13 50 1019.4
20260510223014 18 360 4.8 12.9 0.00 0.28 0.13 51 1019.5
20260510221545 18 360 0.0 8.0 0.00 0.28 0.13 52 1019.5
20260510220025 19 360 4.8 9.7 0.00 0.28 0.13 49 1019.7
20260510214506 20 360 4.8 8.0 0.00 0.28 0.13 49 1019.6
20260510213031 20 360 4.8 9.7 0.00 0.28 0.13 52 1019.8
20260510211504 18 360 6.4 12.9 0.00 0.28 0.13 53 1019.9
20260510210024 18 360 4.8 8.0 0.00 0.28 0.13 53 1020.1
20260510204601 18 360 1.6 6.4 0.00 0.28 0.13 54 1020.4
20260510204502 18 360 1.6 6.4 0.00 0.28 0.13 54 1020.4
20260510203032 18 360 4.8 9.7 0.00 0.28 0.13 55 1020.3
20260510201557 18 360 1.6 12.9 0.00 0.28 0.13 53 1020.4
20260510200015 17 360 3.2 8.0 0.00 0.28 0.13 58 1020.4
20260510194604 17 360 1.6 8.0 0.00 0.28 0.13 57 1020.6
20260510193018 17 360 3.2 8.0 0.00 0.28 0.13 59 1020.7
20260510191554 16 360 3.2 8.0 0.00 0.28 0.13 59 1020.8
20260510190013 16 360 4.8 9.7 0.00 0.28 0.13 63 1020.8
20260510184549 16 360 6.4 12.9 0.00 0.28 0.13 65 1020.9
20260510183020 15 360 3.2 9.7 0.00 0.28 0.13 66 1021.1
20260510181542 15 360 1.6 8.0 0.00 0.28 0.13 68 1021.4
20260510180047 15 360 1.6 8.0 0.00 0.28 0.13 69 1021.4
20260510174522 13 360 1.6 8.0 0.00 0.28 0.13 71 1021.7
20260510173058 13 360 1.6 8.0 0.00 0.28 0.13 75 1021.5
20260510171515 12 360 3.2 8.0 0.00 0.28 0.13 79 1021.5
20260510170054 12 360 1.6 8.0 0.00 0.28 0.13 79 1021.3
20260510164527 11 360 3.2 12.9 0.00 0.28 0.13 83 1021.3
20260510163004 11 360 6.4 12.9 0.03 0.28 0.13 84 1021.1
20260510161541 10 360 8.0 12.9 0.03 0.28 0.13 88 1021.1
20260510160005 10 360 6.4 12.9 0.05 0.28 0.13 92 1021.1
20260510154540 9 360 1.6 4.8 0.05 0.28 0.13 92 1020.9
20260510153036 9 360 6.4 12.9 0.03 0.25 0.10 91 1020.7
20260510151514 9 360 3.2 8.0 0.03 0.23 0.08 92 1020.9
20260510150041 9 360 1.6 4.8 0.05 0.23 0.08 92 1021.0
20260510144520 9 360 3.2 6.4 0.05 0.23 0.08 92 1020.9
20260510143047 9 360 4.8 9.7 0.05 0.23 0.08 92 1020.8
20260510141532 9 360 6.4 12.9 0.03 0.20 0.05 92 1020.6
20260510140008 9 360 6.4 12.9 0.00 0.18 0.03 92 1020.4
20260510134530 9 360 3.2 8.0 0.00 0.18 0.03 91 1020.1
20260510133013 9 360 4.8 6.4 0.00 0.18 0.03 91 1020.2
20260510131529 9 360 3.2 6.4 0.00 0.18 0.03 91 1019.9
20260510130012 9 360 4.8 8.0 0.00 0.18 0.03 92 1019.6
20260510124558 9 360 4.8 8.0 0.00 0.18 0.03 93 1019.1
20260510123010 9 360 3.2 6.4 0.00 0.18 0.03 93 1018.9
20260510121545 8 360 3.2 6.4 0.00 0.18 0.03 93 1018.4
20260510120028 8 360 3.2 8.0 0.00 0.18 0.03 92 1018.2
20260510114507 8 360 4.8 6.4 0.00 0.18 0.03 92 1018.1
20260510113035 8 360 3.2 8.0 0.00 0.18 0.03 92 1018.0
20260510111508 8 360 3.2 6.4 0.00 0.18 0.03 92 1018.1
20260510110058 8 360 3.2 4.8 0.00 0.18 0.03 92 1018.1
20260510104529 8 360 1.6 4.8 0.00 0.18 0.03 92 1018.1
20260510103058 8 360 3.2 6.4 0.00 0.18 0.03 92 1018.2
20260510101534 8 360 4.8 8.0 0.00 0.18 0.03 92 1017.9
20260510100049 9 360 4.8 9.7 0.00 0.18 0.03 92 1017.5
20260510094532 9 360 6.4 9.7 0.00 0.18 0.03 93 1017.3
20260510093053 9 360 3.2 6.4 0.00 0.18 0.03 92 1016.7
20260510091535 9 360 1.6 3.2 0.00 0.18 0.03 92 1016.5
20260510090021 9 360 1.6 3.2 0.00 0.18 0.03 92 1016.4
20260510084547 9 360 0.0 4.8 0.00 0.18 0.03 92 1016.3
20260510083027 9 360 0.0 4.8 0.03 0.18 0.03 91 1015.8
20260510081528 9 360 1.6 4.8 0.03 0.18 0.03 91 1015.8
20260510080045 9 360 3.2 4.8 0.03 0.18 0.03 90 1015.7
20260510074530 10 360 3.2 6.4 0.03 0.18 0.03 90 1015.8
20260510073007 10 360 4.8 8.0 0.00 0.15 0.00 90 1015.7
20260510071522 10 360 0.0 3.2 0.00 0.15 0.00 89 1016.2
20260510070059 10 360 3.2 4.8 0.00 0.15 0.00 88 1016.7
20260510070001 10 360 3.2 4.8 0.00 0.15 0.00 88 1016.8
20260510064520 10 360 0.0 1.6 0.00 0.15 0.00 88 1016.3
20260510063055 10 360 0.0 6.4 0.00 0.15 0.00 87 1015.8
20260510061535 10 360 6.4 19.3 0.00 0.15 0.00 87 1015.1
20260510060030 10 360 9.7 19.3 0.00 0.15 0.15 88 1014.6
20260510054559 10 360 9.7 19.3 0.00 0.15 0.15 88 1014.5
20260510053028 10 360 6.4 12.9 0.00 0.15 0.15 87 1014.6
20260510051549 10 360 9.7 22.5 0.03 0.15 0.15 87 1014.8
20260510050054 10 360 14.5 25.7 0.13 0.15 0.15 87 1014.6
20260510044519 10 360 11.3 20.9 0.15 0.15 0.15 86 1014.7
20260510043055 11 360 4.8 8.0 0.15 0.15 0.15 84 1015.0
20260510041540 11 360 12.9 20.9 0.13 0.13 0.13 79 1015.2
20260510040048 13 360 14.5 30.6 0.00 0.00 0.03 70 1015.7
20260510034528 14 360 12.9 20.9 0.00 0.00 0.00 60 1015.4
20260510033004 14 360 9.7 24.1 0.00 0.00 0.00 56 1013.3
20260510031552 14 360 19.3 30.6 0.00 0.00 0.00 56 1011.1
20260510030007 15 360 17.7 24.1 0.00 0.00 0.00 57 1010.1
20260510024601 15 360 9.7 16.1 0.00 0.00 0.00 58 1009.0
20260510023102 15 360 8.0 14.5 0.00 0.00 0.00 59 1008.7
20260510023005 15 360 8.0 14.5 0.00 0.00 0.00 59 1008.7
20260510021529 15 360 4.8 14.5 0.00 0.00 0.00 59 1008.4
20260510020058 16 360 6.4 14.5 0.00 0.00 0.00 57 1008.5
20260510014540 17 360 6.4 14.5 0.00 0.00 0.00 54 1008.2
20260510013103 17 360 8.0 16.1 0.00 0.00 0.00 53 1008.0
20260510011519 18 360 14.5 22.5 0.00 0.00 0.00 53 1007.4
20260510010052 18 360 9.7 16.1 0.00 0.00 0.00 52 1006.9
20260510004510 20 360 6.4 17.7 0.00 0.00 0.00 49 1006.2
20260510003029 20 360 12.9 35.4 0.00 0.00 0.00 48 1005.9
20260510001600 22 360 22.5 49.9 0.00 0.00 0.00 43 1006.3
20260510001505 22 360 22.5 49.9 0.00 0.00 0.00 40 1006.3
20260510000039 24 360 19.3 29.0 0.00 0.00 0.00 33 1006.2
20260509234556 24 360 17.7 29.0 0.00 0.00 0.00 32 1005.8
20260509233018 25 360 17.7 35.4 0.00 0.00 0.00 31 1005.5
20260509231608 26 360 11.3 25.7 0.00 0.00 0.00 29 1005.5